RYR84KK LEAM-EBCI

Flight info

Callsign RYR84KK
Flight time 2h 37m
Altitude 36000
Route ESILA2T ESILA N865 VTB N867 RBO DCT OSTIX N867 DGO N858 ABRIX DCT CNA DCT ADABI/N0426F340 DCT BOKNO UN858 VANAD UN874 BAMES UT191 PODEM UN873 BAZOS DCT BELDI DCT VEKIN Z173 ARVOL ARVOL7A
Aircraft B738/M-SDE2E3FGHIRWXY/LB1

Departure

Time 2026-04-26 17:38
Airport Almería Airport (LEAM)

Arrival

Time 2026-04-26 20:15
Airport Brussels South Charleroi Airport (EBCI)
Time Latitude Longitude Altitude Speed Heading
2026-04-26 16:55 36.84654 -2.37250 69 ft 0 kts 112°
2026-04-26 17:30 36.84653 -2.37247 61 ft 1 kts 112°
2026-04-26 17:30 36.84646 -2.37231 65 ft 3 kts 129°
2026-04-26 17:30 36.84625 -2.37213 59 ft 5 kts 158°
2026-04-26 17:31 36.84588 -2.37246 61 ft 9 kts 242°
2026-04-26 17:31 36.84563 -2.37338 63 ft 12 kts 254°
2026-04-26 17:31 36.84541 -2.37436 67 ft 12 kts 252°
2026-04-26 17:31 36.84482 -2.37496 62 ft 12 kts 190°
2026-04-26 17:32 36.84432 -2.37570 58 ft 12 kts 249°
2026-04-26 17:32 36.84408 -2.37665 57 ft 11 kts 253°
2026-04-26 17:32 36.84386 -2.37758 65 ft 11 kts 254°
2026-04-26 17:32 36.84364 -2.37848 58 ft 11 kts 252°
2026-04-26 17:33 36.84342 -2.37935 60 ft 10 kts 252°
2026-04-26 17:33 36.84321 -2.38020 60 ft 10 kts 253°
2026-04-26 17:33 36.84299 -2.38110 62 ft 13 kts 253°
2026-04-26 17:34 36.84236 -2.38367 57 ft 16 kts 253°
2026-04-26 17:34 36.84204 -2.38497 58 ft 15 kts 253°
2026-04-26 17:34 36.84173 -2.38622 64 ft 15 kts 253°
2026-04-26 17:34 36.84147 -2.38728 59 ft 9 kts 248°
2026-04-26 17:35 36.84107 -2.38780 62 ft 9 kts 197°
2026-04-26 17:35 36.84050 -2.38775 58 ft 9 kts 153°
2026-04-26 17:35 36.84015 -2.38714 58 ft 9 kts 104°
2026-04-26 17:35 36.84010 -2.38635 61 ft 9 kts 89°
2026-04-26 17:36 36.84015 -2.38558 60 ft 9 kts 75°
2026-04-26 17:36 36.84020 -2.38539 56 ft 0 kts 72°
2026-04-26 17:36 36.84021 -2.38536 57 ft 3 kts 72°
2026-04-26 17:37 36.84083 -2.38288 55 ft 73 kts 73°
2026-04-26 17:37 36.84321 -2.37316 63 ft 158 kts 73°
2026-04-26 17:37 36.84705 -2.35752 391 ft 205 kts 73°
2026-04-26 17:38 36.85545 -2.32011 1670 ft 232 kts 74°
2026-04-26 17:38 36.85980 -2.30072 2275 ft 231 kts 75°
2026-04-26 17:38 36.86377 -2.28124 2872 ft 233 kts 81°
2026-04-26 17:38 36.86327 -2.26098 3414 ft 239 kts 104°
2026-04-26 17:39 36.85606 -2.24175 3887 ft 253 kts 126°
2026-04-26 17:39 36.84322 -2.22647 4553 ft 254 kts 148°
2026-04-26 17:39 36.82765 -2.21651 4879 ft 248 kts 158°
2026-04-26 17:39 36.81162 -2.20898 4938 ft 246 kts 161°
2026-04-26 17:40 36.79550 -2.20236 4946 ft 243 kts 163°
2026-04-26 17:40 36.78487 -2.19818 4948 ft 241 kts 163°
2026-04-26 17:40 36.76328 -2.19652 4948 ft 238 kts 201°
2026-04-26 17:40 36.74998 -2.20847 5052 ft 241 kts 233°
2026-04-26 17:41 36.74216 -2.22696 5675 ft 243 kts 251°
2026-04-26 17:41 36.73711 -2.24708 6001 ft 243 kts 254°
2026-04-26 17:41 36.73245 -2.26728 6036 ft 241 kts 254°
2026-04-26 17:41 36.72770 -2.28736 6050 ft 243 kts 253°
2026-04-26 17:42 36.72282 -2.30755 6057 ft 243 kts 253°
2026-04-26 17:42 36.71829 -2.32779 6134 ft 239 kts 263°
2026-04-26 17:42 36.72031 -2.34804 6544 ft 243 kts 292°
2026-04-26 17:42 36.73017 -2.36589 6866 ft 263 kts 313°
2026-04-26 17:43 36.74311 -2.38243 7502 ft 269 kts 314°
2026-04-26 17:43 36.75637 -2.39901 8250 ft 271 kts 315°
2026-04-26 17:43 36.76977 -2.41574 8978 ft 274 kts 315°
2026-04-26 17:43 36.78329 -2.43269 9686 ft 277 kts 314°
2026-04-26 17:44 36.79693 -2.44985 10326 ft 283 kts 314°
2026-04-26 17:44 36.81137 -2.46809 10516 ft 306 kts 314°
2026-04-26 17:44 36.82682 -2.48766 10779 ft 325 kts 314°
2026-04-26 17:44 36.84286 -2.50802 11329 ft 332 kts 314°
2026-04-26 17:45 36.85915 -2.52873 11980 ft 337 kts 314°
2026-04-26 17:45 36.87564 -2.54973 12651 ft 340 kts 314°
2026-04-26 17:45 36.89232 -2.57098 13332 ft 344 kts 314°
2026-04-26 17:45 36.90894 -2.59216 14016 ft 348 kts 314°
2026-04-26 17:46 36.92599 -2.61387 14698 ft 352 kts 314°
2026-04-26 17:46 36.94321 -2.63586 15371 ft 356 kts 314°
2026-04-26 17:46 36.96060 -2.65809 16068 ft 359 kts 314°
2026-04-26 17:46 36.97817 -2.68058 16745 ft 362 kts 314°
2026-04-26 17:47 36.99580 -2.70317 17461 ft 364 kts 314°
2026-04-26 17:47 37.00706 -2.71871 17900 ft 365 kts 308°
2026-04-26 17:47 37.02484 -2.75523 18700 ft 371 kts 298°
2026-04-26 17:47 37.03689 -2.78408 19203 ft 378 kts 297°
2026-04-26 17:48 37.04901 -2.81353 19700 ft 384 kts 297°
2026-04-26 17:48 37.06117 -2.84296 20258 ft 387 kts 297°
2026-04-26 17:48 37.07358 -2.87277 20801 ft 391 kts 297°
2026-04-26 17:48 37.08639 -2.90328 21360 ft 395 kts 297°
2026-04-26 17:49 37.09928 -2.93384 21854 ft 399 kts 298°
2026-04-26 17:49 37.11227 -2.96455 22441 ft 400 kts 298°
2026-04-26 17:49 37.12533 -2.99539 22985 ft 402 kts 298°
2026-04-26 17:49 37.13849 -3.02645 23467 ft 405 kts 298°
2026-04-26 17:50 37.15173 -3.05775 23972 ft 407 kts 298°
2026-04-26 17:50 37.16503 -3.08920 24476 ft 409 kts 298°
2026-04-26 17:50 37.17835 -3.12074 24954 ft 411 kts 297°
2026-04-26 17:50 37.19177 -3.15255 25386 ft 414 kts 297°
2026-04-26 17:51 37.20525 -3.18454 25787 ft 417 kts 297°
2026-04-26 17:51 37.21887 -3.21689 26142 ft 421 kts 297°
2026-04-26 17:51 37.23256 -3.24943 26574 ft 423 kts 297°
2026-04-26 17:51 37.24629 -3.28212 27000 ft 424 kts 297°
2026-04-26 17:52 37.26011 -3.31503 27362 ft 427 kts 297°
2026-04-26 17:52 37.27399 -3.34813 27707 ft 430 kts 297°
2026-04-26 17:52 37.28793 -3.38142 28057 ft 432 kts 297°
2026-04-26 17:52 37.30196 -3.41495 28404 ft 435 kts 297°
2026-04-26 17:53 37.31588 -3.44824 28741 ft 437 kts 297°
2026-04-26 17:53 37.33001 -3.48209 29035 ft 440 kts 297°
2026-04-26 17:53 37.34429 -3.51631 29301 ft 443 kts 297°
2026-04-26 17:54 37.37409 -3.58374 30166 ft 440 kts 309°
2026-04-26 17:54 37.39674 -3.60948 30483 ft 441 kts 328°
2026-04-26 17:54 37.42448 -3.62580 30779 ft 443 kts 342°
2026-04-26 17:54 37.45485 -3.63220 31127 ft 443 kts 359°
2026-04-26 17:55 37.48549 -3.63201 31634 ft 439 kts
2026-04-26 17:55 37.51600 -3.63109 31988 ft 438 kts
2026-04-26 17:55 37.54653 -3.63021 32253 ft 440 kts
2026-04-26 17:55 37.57712 -3.62962 32591 ft 439 kts
2026-04-26 17:56 37.60777 -3.62928 32937 ft 439 kts
2026-04-26 17:56 37.66841 -3.62884 33731 ft 433 kts
2026-04-26 17:57 37.72819 -3.62839 34320 ft 433 kts
2026-04-26 17:57 37.75836 -3.62815 34549 ft 434 kts
2026-04-26 17:57 37.78863 -3.62790 34790 ft 435 kts
2026-04-26 17:57 37.81875 -3.62766 35202 ft 431 kts
2026-04-26 17:58 37.90822 -3.62695 36005 ft 429 kts
2026-04-26 17:59 37.99806 -3.62624 35991 ft 431 kts
2026-04-26 17:59 38.05742 -3.62576 35994 ft 425 kts
2026-04-26 18:00 38.11659 -3.62529 36007 ft 426 kts
2026-04-26 18:00 38.17592 -3.62379 36004 ft 427 kts
2026-04-26 18:01 38.23489 -3.61810 36004 ft 428 kts
2026-04-26 18:01 38.29427 -3.61165 36004 ft 429 kts
2026-04-26 18:02 38.34392 -3.60653 35999 ft 430 kts
2026-04-26 18:02 38.41379 -3.59963 36001 ft 432 kts
2026-04-26 18:03 38.47376 -3.59379 35999 ft 433 kts
2026-04-26 18:03 38.53388 -3.58792 36004 ft 433 kts
2026-04-26 18:04 38.57742 -3.58366 35997 ft 433 kts
2026-04-26 18:05 38.66714 -3.57486 35997 ft 433 kts
2026-04-26 18:05 38.72720 -3.56895 36006 ft 432 kts
2026-04-26 18:06 38.78710 -3.56305 35998 ft 431 kts
2026-04-26 18:06 38.84689 -3.55715 35998 ft 430 kts
2026-04-26 18:07 38.90614 -3.55130 36001 ft 430 kts
2026-04-26 18:07 38.96570 -3.54540 36002 ft 429 kts
2026-04-26 18:08 39.02514 -3.53952 36001 ft 428 kts
2026-04-26 18:08 39.08450 -3.53367 35999 ft 427 kts
2026-04-26 18:09 39.14376 -3.52782 36001 ft 427 kts
2026-04-26 18:09 39.20300 -3.52196 36005 ft 427 kts
2026-04-26 18:10 39.26227 -3.51608 35999 ft 427 kts
2026-04-26 18:10 39.32129 -3.51022 36006 ft 430 kts
2026-04-26 18:11 39.38066 -3.50431 36008 ft 432 kts
2026-04-26 18:11 39.44081 -3.49832 36005 ft 434 kts
2026-04-26 18:12 39.50111 -3.49229 36003 ft 435 kts
2026-04-26 18:12 39.56148 -3.48626 35998 ft 435 kts
2026-04-26 18:13 39.62151 -3.48021 35996 ft 433 kts
2026-04-26 18:13 39.67573 -3.47470 35997 ft 432 kts
2026-04-26 18:14 39.73547 -3.46863 36002 ft 430 kts
2026-04-26 18:14 39.79499 -3.46199 35999 ft 428 kts
2026-04-26 18:15 39.85343 -3.45084 36005 ft 427 kts
2026-04-26 18:15 39.91198 -3.43841 36002 ft 426 kts
2026-04-26 18:16 39.97052 -3.42628 36003 ft 426 kts
2026-04-26 18:16 40.05836 -3.40856 36007 ft 426 kts
2026-04-26 18:17 40.11699 -3.39680 35998 ft 427 kts
2026-04-26 18:17 40.17578 -3.38498 36004 ft 428 kts
2026-04-26 18:18 40.23462 -3.37313 36004 ft 428 kts
2026-04-26 18:18 40.29307 -3.36133 35998 ft 429 kts
2026-04-26 18:19 40.35217 -3.34937 36001 ft 430 kts
2026-04-26 18:19 40.41144 -3.33736 36002 ft 431 kts
2026-04-26 18:20 40.47068 -3.32534 36001 ft 431 kts
2026-04-26 18:20 40.52002 -3.31531 36003 ft 431 kts
2026-04-26 18:21 40.58929 -3.30120 35999 ft 431 kts
2026-04-26 18:21 40.64856 -3.28910 36002 ft 431 kts
2026-04-26 18:22 40.70686 -3.27718 36002 ft 430 kts
2026-04-26 18:22 40.76561 -3.26515 36000 ft 430 kts
2026-04-26 18:23 40.82470 -3.25303 36003 ft 430 kts
2026-04-26 18:23 40.88374 -3.24064 35998 ft 429 kts
2026-04-26 18:24 40.94259 -3.22738 36006 ft 429 kts
2026-04-26 18:24 41.00154 -3.21397 36002 ft 429 kts
2026-04-26 18:25 41.06045 -3.20065 36002 ft 430 kts
2026-04-26 18:25 41.11944 -3.18734 35999 ft 430 kts
2026-04-26 18:26 41.17848 -3.17400 35999 ft 431 kts
2026-04-26 18:26 41.23730 -3.16069 36006 ft 432 kts
2026-04-26 18:27 41.29627 -3.14732 36001 ft 433 kts
2026-04-26 18:27 41.35565 -3.13383 36006 ft 433 kts
2026-04-26 18:28 41.41518 -3.12027 36004 ft 434 kts
2026-04-26 18:28 41.47468 -3.10670 35998 ft 434 kts
2026-04-26 18:29 41.53415 -3.09316 36005 ft 433 kts
2026-04-26 18:29 41.59311 -3.07984 35998 ft 432 kts
2026-04-26 18:30 41.65233 -3.06643 35999 ft 431 kts
2026-04-26 18:30 41.71136 -3.05302 36000 ft 430 kts
2026-04-26 18:31 41.77028 -3.03957 36001 ft 429 kts
2026-04-26 18:31 41.82910 -3.02604 36001 ft 429 kts
2026-04-26 18:32 41.88753 -3.01257 35998 ft 429 kts
2026-04-26 18:32 41.94636 -2.99899 36000 ft 429 kts
2026-04-26 18:33 42.00520 -2.98538 36007 ft 430 kts
2026-04-26 18:33 42.06426 -2.97171 36004 ft 431 kts
2026-04-26 18:34 42.12348 -2.95796 36005 ft 432 kts
2026-04-26 18:34 42.18241 -2.94426 36003 ft 433 kts
2026-04-26 18:35 42.24189 -2.93040 35996 ft 434 kts
2026-04-26 18:35 42.30143 -2.91651 36004 ft 434 kts
2026-04-26 18:36 42.36095 -2.90259 35998 ft 434 kts
2026-04-26 18:36 42.42040 -2.88866 36003 ft 433 kts
2026-04-26 18:37 42.47711 -2.86452 35996 ft 431 kts 27°
2026-04-26 18:37 42.52935 -2.82497 35996 ft 429 kts 30°
2026-04-26 18:38 42.58108 -2.78496 36000 ft 427 kts 29°
2026-04-26 18:38 42.63279 -2.74539 35987 ft 426 kts 29°
2026-04-26 18:39 42.68446 -2.70611 36002 ft 425 kts 29°
2026-04-26 18:39 42.73610 -2.66689 36004 ft 425 kts 29°
2026-04-26 18:40 42.78742 -2.62785 36000 ft 426 kts 29°
2026-04-26 18:40 42.83911 -2.58844 36002 ft 426 kts 29°
2026-04-26 18:41 42.89089 -2.54888 36000 ft 427 kts 29°
2026-04-26 18:41 42.94268 -2.50924 36000 ft 427 kts 29°
2026-04-26 18:42 42.99462 -2.46940 36002 ft 428 kts 29°
2026-04-26 18:42 43.04656 -2.42948 36010 ft 429 kts 29°
2026-04-26 18:43 43.09823 -2.38969 36000 ft 429 kts 29°
2026-04-26 18:43 43.15022 -2.34958 35999 ft 429 kts 29°
2026-04-26 18:44 43.20219 -2.30941 36005 ft 428 kts 29°
2026-04-26 18:44 43.25405 -2.26923 36007 ft 428 kts 29°
2026-04-26 18:45 43.30576 -2.22910 36000 ft 427 kts 29°
2026-04-26 18:45 43.35700 -2.18926 36000 ft 425 kts 29°
2026-04-26 18:46 43.40834 -2.14925 35999 ft 423 kts 29°
2026-04-26 18:46 43.45949 -2.10932 36001 ft 422 kts 29°
2026-04-26 18:47 43.51050 -2.06941 36003 ft 421 kts 29°
2026-04-26 18:47 43.56138 -2.02954 36000 ft 420 kts 29°
2026-04-26 18:48 43.61221 -1.98961 36000 ft 420 kts 29°
2026-04-26 18:48 43.66270 -1.94988 36001 ft 421 kts 29°
2026-04-26 18:49 43.71359 -1.90976 36003 ft 421 kts 29°
2026-04-26 18:49 43.76454 -1.86952 36001 ft 422 kts 30°
2026-04-26 18:50 43.81555 -1.82913 36002 ft 423 kts 30°
2026-04-26 18:50 43.86661 -1.78862 36001 ft 423 kts 30°
2026-04-26 18:51 43.90911 -1.75485 36003 ft 424 kts 30°
2026-04-26 18:51 43.96863 -1.70744 36001 ft 425 kts 30°
2026-04-26 18:52 44.01157 -1.67318 36002 ft 425 kts 30°
2026-04-26 18:52 44.07110 -1.62558 36001 ft 425 kts 30°
2026-04-26 18:53 44.11367 -1.59147 35999 ft 425 kts 30°
2026-04-26 18:53 44.16489 -1.55036 35999 ft 425 kts 30°
2026-04-26 18:54 44.21604 -1.50922 36003 ft 424 kts 30°
2026-04-26 18:54 44.26713 -1.46805 35999 ft 424 kts 30°
2026-04-26 18:55 44.31782 -1.42711 35998 ft 423 kts 30°
2026-04-26 18:55 44.36875 -1.38590 36000 ft 423 kts 30°
2026-04-26 18:56 44.41966 -1.34461 36005 ft 423 kts 30°
2026-04-26 18:56 44.46978 -1.30389 36003 ft 422 kts 30°
2026-04-26 18:57 44.51201 -1.26952 36001 ft 422 kts 30°
2026-04-26 18:57 44.57102 -1.22139 36002 ft 422 kts 30°
2026-04-26 18:58 44.62176 -1.17992 36002 ft 422 kts 30°
2026-04-26 18:58 44.67249 -1.13836 36003 ft 422 kts 30°
2026-04-26 18:59 44.72324 -1.09671 36002 ft 422 kts 30°
2026-04-26 18:59 44.77399 -1.05496 36000 ft 423 kts 30°
2026-04-26 19:00 44.82476 -1.01312 36000 ft 423 kts 30°
2026-04-26 19:00 44.87515 -0.97150 35999 ft 423 kts 30°
2026-04-26 19:01 44.92591 -0.92950 36001 ft 423 kts 30°
2026-04-26 19:01 44.97667 -0.88740 36000 ft 423 kts 30°
2026-04-26 19:02 45.02742 -0.84523 36001 ft 423 kts 30°
2026-04-26 19:02 45.06960 -0.81011 36005 ft 423 kts 30°
2026-04-26 19:03 45.12857 -0.76091 36001 ft 423 kts 30°
2026-04-26 19:03 45.17934 -0.71845 36000 ft 423 kts 30°
2026-04-26 19:04 45.23003 -0.67598 36001 ft 423 kts 30°
2026-04-26 19:04 45.28072 -0.63340 35999 ft 423 kts 30°
2026-04-26 19:05 45.35668 -0.56946 35998 ft 423 kts 30°
2026-04-26 19:06 45.40663 -0.52728 36003 ft 423 kts 30°
2026-04-26 19:06 45.45719 -0.48451 36000 ft 423 kts 30°
2026-04-26 19:07 45.50773 -0.44166 36005 ft 423 kts 30°
2026-04-26 19:07 45.55827 -0.39873 36002 ft 423 kts 31°
2026-04-26 19:08 45.60879 -0.35572 36005 ft 423 kts 31°
2026-04-26 19:08 45.65893 -0.31295 35999 ft 423 kts 31°
2026-04-26 19:09 45.70870 -0.26825 35999 ft 423 kts 32°
2026-04-26 19:09 45.75803 -0.22239 35998 ft 422 kts 33°
2026-04-26 19:10 45.80733 -0.17658 35998 ft 423 kts 33°
2026-04-26 19:10 45.85674 -0.13081 36000 ft 423 kts 32°
2026-04-26 19:11 45.90581 -0.08535 36002 ft 423 kts 32°
2026-04-26 19:11 45.95518 -0.03953 36002 ft 423 kts 32°
2026-04-26 19:12 46.00460 0.00643 36000 ft 423 kts 33°
2026-04-26 19:12 46.05398 0.05246 36002 ft 423 kts 33°
2026-04-26 19:13 46.10337 0.09860 36002 ft 423 kts 33°
2026-04-26 19:13 46.15242 0.14452 35999 ft 423 kts 33°
2026-04-26 19:14 46.20175 0.19081 36005 ft 423 kts 33°
2026-04-26 19:14 46.25111 0.23723 36009 ft 423 kts 33°
2026-04-26 19:15 46.30045 0.28373 35999 ft 424 kts 33°
2026-04-26 19:15 46.34980 0.33033 36003 ft 424 kts 33°
2026-04-26 19:16 46.39879 0.37670 36000 ft 423 kts 33°
2026-04-26 19:16 46.44808 0.42347 36001 ft 423 kts 33°
2026-04-26 19:17 46.49735 0.47031 36001 ft 423 kts 33°
2026-04-26 19:17 46.54679 0.51676 35997 ft 423 kts 28°
2026-04-26 19:18 46.60167 0.54617 36010 ft 421 kts 12°
2026-04-26 19:18 46.65864 0.56415 35998 ft 422 kts 12°
2026-04-26 19:19 46.71586 0.58219 35998 ft 422 kts 12°
2026-04-26 19:19 46.77321 0.60089 36002 ft 422 kts 12°
2026-04-26 19:20 46.83061 0.61990 36000 ft 422 kts 12°
2026-04-26 19:20 46.88765 0.63886 36003 ft 422 kts 12°
2026-04-26 19:21 46.94492 0.65792 35999 ft 422 kts 12°
2026-04-26 19:21 47.00179 0.67688 36005 ft 422 kts 12°
2026-04-26 19:22 47.05918 0.69457 35993 ft 422 kts
2026-04-26 19:22 47.11767 0.70103 35998 ft 421 kts
2026-04-26 19:23 47.17626 0.70593 36006 ft 421 kts
2026-04-26 19:23 47.23481 0.71156 36002 ft 422 kts
2026-04-26 19:24 47.29331 0.71763 36005 ft 422 kts
2026-04-26 19:24 47.38072 0.72685 36001 ft 422 kts
2026-04-26 19:25 47.42970 0.73201 35998 ft 422 kts
2026-04-26 19:25 47.49761 0.74059 35995 ft 422 kts 10°
2026-04-26 19:26 47.55371 0.76565 35998 ft 421 kts 19°
2026-04-26 19:26 47.60914 0.79398 36001 ft 422 kts 19°
2026-04-26 19:27 47.66471 0.82181 36002 ft 422 kts 18°
2026-04-26 19:27 47.72005 0.84913 35999 ft 422 kts 18°
2026-04-26 19:28 47.77574 0.87663 36003 ft 422 kts 18°
2026-04-26 19:28 47.83148 0.90424 35998 ft 422 kts 18°
2026-04-26 19:29 47.88714 0.93216 36001 ft 422 kts 18°
2026-04-26 19:29 47.94276 0.96035 36001 ft 422 kts 18°
2026-04-26 19:30 47.99839 0.98858 36000 ft 422 kts 18°
2026-04-26 19:30 48.04464 1.01208 36003 ft 422 kts 18°
2026-04-26 19:31 48.10930 1.04499 36003 ft 422 kts 18°
2026-04-26 19:31 48.16492 1.07337 36003 ft 422 kts 18°
2026-04-26 19:32 48.22053 1.10181 36002 ft 422 kts 18°
2026-04-26 19:32 48.27618 1.13015 36003 ft 422 kts 18°
2026-04-26 19:33 48.33146 1.15833 36002 ft 422 kts 18°
2026-04-26 19:33 48.38709 1.18677 36000 ft 422 kts 18°
2026-04-26 19:34 48.44268 1.21526 36001 ft 422 kts 18°
2026-04-26 19:34 48.49823 1.24381 36001 ft 422 kts 18°
2026-04-26 19:35 48.55384 1.27244 35999 ft 422 kts 18°
2026-04-26 19:35 48.60912 1.30041 36002 ft 422 kts 18°
2026-04-26 19:36 48.65580 1.32384 35999 ft 422 kts 18°
2026-04-26 19:36 48.72053 1.35648 36004 ft 422 kts 18°
2026-04-26 19:37 48.77617 1.38467 36003 ft 422 kts 18°
2026-04-26 19:37 48.83183 1.41294 36001 ft 421 kts 18°
2026-04-26 19:38 48.88703 1.44106 36002 ft 421 kts 18°
2026-04-26 19:38 48.94258 1.46940 36000 ft 421 kts 18°
2026-04-26 19:39 48.99889 1.49350 35999 ft 420 kts
2026-04-26 19:39 49.05675 1.50608 36002 ft 420 kts
2026-04-26 19:40 49.11466 1.51868 35999 ft 420 kts
2026-04-26 19:40 49.17253 1.53214 36000 ft 420 kts
2026-04-26 19:41 49.22989 1.54626 35995 ft 421 kts 13°
2026-04-26 19:41 49.25745 1.56105 36001 ft 420 kts 26°
2026-04-26 19:41 49.27437 1.57541 36009 ft 421 kts 33°
2026-04-26 19:42 49.32550 1.64477 36001 ft 421 kts 44°
2026-04-26 19:42 49.36738 1.70755 36004 ft 421 kts 44°
2026-04-26 19:43 49.40959 1.76995 35994 ft 420 kts 44°
2026-04-26 19:43 49.45115 1.83097 35995 ft 413 kts 43°
2026-04-26 19:44 49.47195 1.86153 35874 ft 416 kts 43°
2026-04-26 19:44 49.49298 1.89249 35605 ft 417 kts 44°
2026-04-26 19:44 49.51388 1.92329 35360 ft 414 kts 44°
2026-04-26 19:44 49.53458 1.95385 35101 ft 410 kts 44°
2026-04-26 19:45 49.55503 1.98406 34847 ft 406 kts 44°
2026-04-26 19:45 49.57534 2.01408 34602 ft 403 kts 44°
2026-04-26 19:45 49.59546 2.04388 34328 ft 399 kts 44°
2026-04-26 19:45 49.61511 2.07301 34023 ft 395 kts 44°
2026-04-26 19:46 49.63482 2.10226 33662 ft 392 kts 44°
2026-04-26 19:46 49.65441 2.13137 33320 ft 389 kts 44°
2026-04-26 19:46 49.67385 2.16029 32967 ft 387 kts 44°
2026-04-26 19:46 49.69314 2.18904 32616 ft 384 kts 44°
2026-04-26 19:47 49.71235 2.21767 32236 ft 383 kts 44°
2026-04-26 19:47 49.72500 2.23656 32022 ft 381 kts 44°
2026-04-26 19:47 49.75035 2.27445 31562 ft 378 kts 44°
2026-04-26 19:47 49.76917 2.30261 31227 ft 375 kts 44°
2026-04-26 19:48 49.78763 2.33026 30883 ft 373 kts 44°
2026-04-26 19:48 49.80620 2.35812 30554 ft 371 kts 44°
2026-04-26 19:48 49.82465 2.38583 30219 ft 369 kts 44°
2026-04-26 19:48 49.84303 2.41345 29878 ft 367 kts 44°
2026-04-26 19:49 49.86123 2.44085 29547 ft 364 kts 44°
2026-04-26 19:49 49.87934 2.46814 29195 ft 362 kts 44°
2026-04-26 19:49 49.89730 2.49524 28856 ft 359 kts 44°
2026-04-26 19:49 49.91517 2.52220 28511 ft 357 kts 44°
2026-04-26 19:50 49.93294 2.54906 28168 ft 355 kts 44°
2026-04-26 19:50 49.95057 2.57572 27826 ft 353 kts 44°
2026-04-26 19:50 49.96809 2.60230 27485 ft 351 kts 44°
2026-04-26 19:50 49.98526 2.62843 27152 ft 349 kts 44°
2026-04-26 19:51 50.00250 2.65473 26817 ft 347 kts 44°
2026-04-26 19:51 50.01968 2.68096 26484 ft 345 kts 44°
2026-04-26 19:51 50.03674 2.70704 26148 ft 343 kts 44°
2026-04-26 19:51 50.05373 2.73303 25827 ft 341 kts 44°
2026-04-26 19:52 50.07059 2.75884 25492 ft 339 kts 44°
2026-04-26 19:52 50.08734 2.78452 25160 ft 337 kts 44°
2026-04-26 19:52 50.10403 2.81014 24830 ft 336 kts 44°
2026-04-26 19:52 50.12060 2.83558 24505 ft 334 kts 44°
2026-04-26 19:53 50.13705 2.86088 24181 ft 332 kts 44°
2026-04-26 19:53 50.15346 2.88612 23856 ft 330 kts 44°
2026-04-26 19:53 50.16975 2.91123 23531 ft 329 kts 44°
2026-04-26 19:53 50.18575 2.93590 23219 ft 327 kts 44°
2026-04-26 19:54 50.20187 2.96078 22894 ft 325 kts 44°
2026-04-26 19:54 50.21792 2.98559 22582 ft 324 kts 44°
2026-04-26 19:54 50.23387 3.01026 22265 ft 322 kts 44°
2026-04-26 19:54 50.24972 3.03480 21950 ft 320 kts 44°
2026-04-26 19:55 50.26550 3.05926 21636 ft 319 kts 44°
2026-04-26 19:55 50.28120 3.08361 21323 ft 317 kts 44°
2026-04-26 19:55 50.29682 3.10788 21012 ft 316 kts 44°
2026-04-26 19:55 50.31234 3.13200 20700 ft 314 kts 44°
2026-04-26 19:56 50.32760 3.15574 20398 ft 313 kts 44°
2026-04-26 19:56 50.34318 3.18001 20085 ft 311 kts 44°
2026-04-26 19:56 50.35828 3.20355 19783 ft 310 kts 44°
2026-04-26 19:56 50.37350 3.22730 19477 ft 308 kts 45°
2026-04-26 19:57 50.38865 3.25096 19172 ft 307 kts 45°
2026-04-26 19:57 50.40371 3.27450 18871 ft 305 kts 45°
2026-04-26 19:57 50.41875 3.29796 18568 ft 304 kts 44°
2026-04-26 19:57 50.43371 3.32126 18268 ft 303 kts 44°
2026-04-26 19:58 50.44860 3.34449 17966 ft 301 kts 44°
2026-04-26 19:58 50.46341 3.36761 17668 ft 300 kts 44°
2026-04-26 19:58 50.47817 3.39067 17369 ft 299 kts 44°
2026-04-26 19:58 50.49285 3.41363 17070 ft 297 kts 44°
2026-04-26 19:59 50.50745 3.43649 16772 ft 296 kts 45°
2026-04-26 19:59 50.52200 3.45929 16473 ft 295 kts 45°
2026-04-26 19:59 50.53650 3.48204 16167 ft 294 kts 45°
2026-04-26 19:59 50.54823 3.50788 16011 ft 291 kts 69°
2026-04-26 20:00 50.55446 3.53806 16006 ft 289 kts 73°
2026-04-26 20:00 50.56015 3.56852 15525 ft 300 kts 73°
2026-04-26 20:00 50.56597 3.60015 15239 ft 302 kts 73°
2026-04-26 20:00 50.57185 3.63195 14998 ft 303 kts 73°
2026-04-26 20:01 50.57774 3.66372 14749 ft 303 kts 73°
2026-04-26 20:01 50.58366 3.69551 14499 ft 302 kts 73°
2026-04-26 20:01 50.58957 3.72716 14275 ft 301 kts 73°
2026-04-26 20:01 50.59544 3.75855 14028 ft 297 kts 73°
2026-04-26 20:02 50.60123 3.78947 13791 ft 293 kts 73°
2026-04-26 20:02 50.60695 3.82007 13565 ft 290 kts 73°
2026-04-26 20:02 50.61264 3.85057 13345 ft 290 kts 73°
2026-04-26 20:02 50.61640 3.87070 13200 ft 291 kts 73°
2026-04-26 20:03 50.62401 3.91160 12898 ft 291 kts 73°
2026-04-26 20:03 50.62969 3.94214 12662 ft 290 kts 73°
2026-04-26 20:03 50.63533 3.97250 12441 ft 289 kts 73°
2026-04-26 20:03 50.64095 4.00283 12215 ft 288 kts 73°
2026-04-26 20:04 50.64653 4.03301 11976 ft 287 kts 73°
2026-04-26 20:04 50.65209 4.06310 11765 ft 286 kts 73°
2026-04-26 20:04 50.65763 4.09316 11542 ft 284 kts 73°
2026-04-26 20:04 50.66307 4.12266 11322 ft 284 kts 73°
2026-04-26 20:05 50.66854 4.15236 11103 ft 283 kts 73°
2026-04-26 20:05 50.67398 4.18204 10881 ft 282 kts 73°
2026-04-26 20:05 50.67941 4.21164 10656 ft 281 kts 73°
2026-04-26 20:05 50.68479 4.24121 10445 ft 280 kts 75°
2026-04-26 20:06 50.68614 4.27152 10205 ft 278 kts 95°
2026-04-26 20:06 50.68713 4.30172 9953 ft 276 kts 77°
2026-04-26 20:06 50.68879 4.33134 9725 ft 272 kts 101°
2026-04-26 20:06 50.68030 4.35680 9520 ft 258 kts 139°
2026-04-26 20:07 50.66503 4.36834 9341 ft 240 kts 174°
2026-04-26 20:07 50.64864 4.36637 8886 ft 235 kts 187°
2026-04-26 20:07 50.63267 4.36169 8427 ft 232 kts 200°
2026-04-26 20:07 50.61771 4.35252 7970 ft 230 kts 202°
2026-04-26 20:08 50.60284 4.34317 7476 ft 229 kts 202°
2026-04-26 20:08 50.58811 4.33398 6996 ft 226 kts 202°
2026-04-26 20:08 50.57379 4.32513 6511 ft 223 kts 202°
2026-04-26 20:08 50.55935 4.31626 5998 ft 222 kts 202°
2026-04-26 20:09 50.54500 4.30749 5472 ft 221 kts 201°
2026-04-26 20:09 50.53067 4.29877 4943 ft 220 kts 201°
2026-04-26 20:09 50.51645 4.29014 4422 ft 219 kts 201°
2026-04-26 20:09 50.50216 4.28191 3889 ft 218 kts 196°
2026-04-26 20:10 50.48823 4.27345 3471 ft 213 kts 217°
2026-04-26 20:10 50.47966 4.25539 3197 ft 205 kts 251°
2026-04-26 20:10 50.47466 4.23492 2923 ft 199 kts 235°
2026-04-26 20:10 50.46351 4.22408 2734 ft 192 kts 186°
2026-04-26 20:11 50.45098 4.22919 2605 ft 192 kts 150°
2026-04-26 20:11 50.43907 4.23914 2508 ft 195 kts 154°
2026-04-26 20:11 50.42703 4.24877 2395 ft 193 kts 147°
2026-04-26 20:12 50.41773 4.28589 2238 ft 192 kts 90°
2026-04-26 20:12 50.41787 4.30596 2154 ft 178 kts 79°
2026-04-26 20:12 50.42225 4.32357 1970 ft 170 kts 63°
2026-04-26 20:12 50.42705 4.34013 1735 ft 162 kts 65°
2026-04-26 20:13 50.43158 4.35575 1520 ft 153 kts 65°
2026-04-26 20:13 50.43590 4.37055 1361 ft 149 kts 65°
2026-04-26 20:13 50.44023 4.38544 1143 ft 149 kts 65°
2026-04-26 20:13 50.44455 4.40027 959 ft 150 kts 65°
2026-04-26 20:14 50.44886 4.41499 867 ft 146 kts 65°
2026-04-26 20:14 50.45308 4.42944 742 ft 144 kts 65°
2026-04-26 20:14 50.45708 4.44317 624 ft 130 kts 65°
2026-04-26 20:14 50.46020 4.45396 614 ft 76 kts 70°
2026-04-26 20:15 50.46163 4.45906 615 ft 36 kts 67°
2026-04-26 20:15 50.46217 4.46092 618 ft 27 kts 77°
2026-04-26 20:15 50.46154 4.46246 622 ft 12 kts 166°
2026-04-26 20:15 50.46117 4.46231 620 ft 0 kts 229°
2026-04-26 20:16 50.46107 4.46223 623 ft 0 kts 191°
2026-04-26 20:16 50.46097 4.46240 618 ft 4 kts 105°
2026-04-26 20:16 50.46117 4.46260 612 ft 4 kts
2026-04-26 20:16 50.46146 4.46247 621 ft 4 kts 339°
2026-04-26 20:17 50.46184 4.46224 613 ft 4 kts 336°
2026-04-26 20:17 50.46203 4.46211 620 ft 5 kts 338°
2026-04-26 20:17 50.46238 4.46187 610 ft 6 kts 336°
2026-04-26 20:17 50.46278 4.46159 610 ft 7 kts 335°
2026-04-26 20:18 50.46319 4.46131 617 ft 6 kts 336°
2026-04-26 20:18 50.46358 4.46100 614 ft 6 kts 338°
2026-04-26 20:18 50.46400 4.46109 623 ft 6 kts 31°
2026-04-26 20:18 50.46423 4.46166 614 ft 6 kts 65°
2026-04-26 20:19 50.46441 4.46227 622 ft 6 kts 65°
2026-04-26 20:19 50.46458 4.46287 615 ft 6 kts 67°
2026-04-26 20:19 50.46475 4.46346 624 ft 6 kts 67°
2026-04-26 20:19 50.46492 4.46404 617 ft 6 kts 65°
2026-04-26 20:20 50.46509 4.46461 618 ft 6 kts 64°
2026-04-26 20:20 50.46527 4.46516 617 ft 6 kts 57°
2026-04-26 20:20 50.46558 4.46548 612 ft 6 kts
2026-04-26 20:20 50.46596 4.46543 612 ft 6 kts 348°
2026-04-26 20:21 50.46634 4.46544 616 ft 6 kts 15°
2026-04-26 20:21 50.46661 4.46585 617 ft 6 kts 60°
2026-04-26 20:21 50.46678 4.46641 620 ft 5 kts 66°
2026-04-26 20:21 50.46694 4.46695 623 ft 5 kts 65°
2026-04-26 20:22 50.46709 4.46748 616 ft 5 kts 65°
2026-04-26 20:22 50.46725 4.46799 616 ft 5 kts 65°
2026-04-26 20:22 50.46740 4.46850 614 ft 5 kts 65°
2026-04-26 20:22 50.46756 4.46909 621 ft 9 kts 66°
2026-04-26 20:23 50.46787 4.47018 618 ft 11 kts 66°
2026-04-26 20:23 50.46808 4.47093 614 ft 7 kts 67°
2026-04-26 20:23 50.46821 4.47135 614 ft 3 kts 66°
2026-04-26 20:23 50.46830 4.47168 619 ft 3 kts 61°
2026-04-26 20:24 50.46849 4.47184 617 ft 3 kts 12°
2026-04-26 20:24 50.46870 4.47179 617 ft 3 kts 339°
2026-04-26 20:24 50.46881 4.47172 618 ft 1 kts 338°
2026-04-26 20:24 50.46890 4.47166 621 ft 0 kts 337°
2026-04-26 20:25 50.46892 4.47164 620 ft 0 kts 337°